sat.trackr.live / text

‹ back to catalog

STARLINK-34916

NORAD 65427 · 2025-192Z

PAYLOAD ACTIVE UNKNOWN

§ Identity

Operator
Country
US
Launch date
2025-08-31
Launch site
AFETR
Launch vehicle
Mass (kg)
RCS (m²)

Purposes: comms

External: N2YO · Heavens-Above · Gunter

§ Orbital elements

Epoch: 2026-09-20T14:27:30.580992Z

Period
94.01 min
Inclination
53.1592°
Eccentricity
0.0000827
Mean motion
15.31733641 rev/d
Perigee alt
470.1 km
Apogee alt
471.2 km
Semi-major
6,848.8 km
B*
4.6992e-4
RAAN
45.7609°
Arg perigee
54.1352°
Mean anomaly
305.9727°
Rev number
5,924

§ Raw data

STARLINK-349161 65427U 25192Z   26263.60243728  .00014260  00000+0  46992-3 0  99992 65427  53.1592  45.7609 0000827  54.1352 305.9727 15.31733641 59246

JSON: /api/v1/satellites/65427 · /tle

For live sub-satellite position, see the globe view (requires WebGL).

§ Visibility from observer

Set your observer location to see the next 7 days of passes ≥ 10°. The values pass through the URL so the page stays shareable.

No JS? Fill the form by hand. The geolocation button needs JavaScript.